Погода в Кунграде

Погода в Кунграде : погода сейчас, прогноз погоды и архив. Всё, что Вы хотите узнать о погоде в Кунграде!

Хотите узнать прогноз погоды в Кунграде? Тогда Вам сюда: Погода в Кунграде

Поиск расширенной информации на нашем сайте:

Другие новости

Новости СМИ2

Главная страница сайта

Новости сайта

03.07.2017

Напоминаем, что на нашем специализированном сайте Метеоцентр.Азия вы можете получить высокодетализированные автоматические прогнозы погоды по пунктам России, СНГ и мира в авиационном формате (включающие направление и скорость ветра, видимость, явления погоды, количество и форму облачности, нижнюю и верхнюю границу облачности).

Рекомендуем: веник сорго

Погода в Кунграде - сегодня

Время (UTC), дата Ветер
(°,м/с) 
Видим.   Явления Облачность Т
(°С)
Тd
(°С)
f(%) Тe
(°С)
Pmin
(гПа)
dP
(гПа)
Po
(мм)
O2
(г/м3)
Тmin Tmax R s Состояние
почвы
00 19.09.17 330 (СЗ) 20000 м    ясно 
+12.6 +8 74 +14  1018.8  0.3  759  291           
03 19.09.17 330 (СЗ) 20000 м    ясно 
+12.8 +8 73 +14  1019.7  0.9  759  291           
06 19.09.17 340 (С) 20000 м    ясно 
+27.8 +11.4 36 +31  1020.4  760  276  +11.3         
09 19.09.17 030 (СВ) 20000 м    ясно 
+31.6 +5.8 20 +32  1019.5  -0.8  759  273           
12 19.09.17 040 (СВ) 20000 м    ясно 
+31.7 +11.1 28 +34  1018.7  -0.8  759  272           
15 19.09.17 010 (С) 20000 м    ясно 
+26.8 +6.4 27 +27  1019.8  760  278    +33.8       
18 19.09.17 030 (СВ) 20000 м    ясно 
+20.7 +6.5 40 +21  1019.6    759  283    +33.8       
21 19.09.17 040 (СВ) 20000 м    ясно 
+16.7 +2.7 39 +18  1019.9  0.3  759  288           
00 20.09.17 020 (С) 20000 м    ясно 
+13.2 +4.5 56 +14  1019.9  -0.1  759  291           
03 20.09.17 330 (СЗ) 20000 м    ясно 
+11.4 +4.3 62 +12  1020.3  0.4  751  290           
06 20.09.17 080 (В) 20000 м    ясно 
+25.2 +0.6 20 +25  1019.1  -1  759  280  +9.2         
09 20.09.17 070 (В) 20000 м    ясно 
+30.8 +2.3 16 +31  1019.1  0.1  759  275           
12 20.09.17 030 (СВ) 20000 м    ясно 
+30 +2.3 17 +30  1017.8  -1.3  758  275           
15 20.09.17 020 (С) 20000 м    ясно 
+24 +4.8 29 +24  1017.7  -0.2  758  280    +31.2       
18 20.09.17 020 (С) 20000 м    ясно 
+18.1 +5.3 43 +20  1017.9  0.1  758  286    +31.2       
21 20.09.17 020 (С) 20000 м    ясно 
+14.8 +4.8 51 +15  1017.4  -0.6  758  289           
00 21.09.17 340 (С) 20000 м    ясно 
+9.5 +3.8 68 +10  1016.8  -0.8  757  294           
03 21.09.17 330 (СЗ) 20000 м    ясно 
+9.5 +4.3 70 +10  1017.3  0.5  757  294           
06 21.09.17 350 (С) 20000 м    ясно 
+23.9 +4.3 28 +24  1017.8  0.9  758  280  +8.2         
09 21.09.17 020 (С) 20000 м    ясно 
+29.8 +1.5 16 +30  1016.4  -1.3  757  275           
12 21.09.17 010 (С) 20000 м    ясно 
+30 +1.5 16 +30  1014.4  -2  755  274           
15 21.09.17 030 (СВ) 20000 м    ясно 
+25 +4.5 27 +25  1014.1  -0.4  755  278    +31.2       
18 21.09.17 360 (С) 20000 м    ясно 
+16.2 +4.5 46 +17  1014.6  0.3  755  287    +14.5    <0.5  мокрый или
старый снег
50-90% 
21 21.09.17 340 (С) 20000 м    ясно 
+11.8 +6.1 68 +12  1014.4  -0.2  755  291           
00 22.09.17 300 (СЗ) 20000 м    ясно 
+9.9 +5.8 76 +10  1014.4  -0.2  755  293           
Время (UTC), дата Ветер
(°,м/с) 
Видим.   Явления Облачность Т
(°С)
Тd
(°С)
f(%) Тe
(°С)
Pmin
(гПа)
dP
(гПа)
Po
(мм)
O2
(г/м3)
Тmin Tmax R s Состояние
почвы

Для получения пояснительной информации подведите курсор к названию столбца.

ПОГОДА в Кунграде - архив

Всё, что Вы хотите узнать о погоде в Кунграде - удобно и подробно!

Выберите нужную дату (начиная с 1 января 2015* года) и нажмите кнопку "Найти".
Будут отображены архивные сводки погоды по пункту Кунград, начиная с указанной даты.


Отображать данные в формате CSV (для использования в таблицах Excel)


Внимание! Наш архив погоды предназначен исключительно для личного некоммерческого использования в познавательных целях. Если Вам необходимы официальные справки о состоянии погоды (для производственных, юридических, коммерческих и т.п. целей), обращайтесь в органы Росгидромета.

*Примечание: данная дата относится к архиву по метеостанциям СССР (Россия, СНГ, Балтия).
Архив по метеостанциям Зарубежной Европы и Азии (кроме Китая) хранится 10 дней, по другим регионам земного шара (Китай, Африка, Америка, Австралия, Океания) - 1 день.

Кунград - район местоположения метеостанции


Название, широта, долгота, высота метеостанции:
Кунград 43.1°ш. 58.9°д. 64 м над ур. моря [Узбекистан]

Дополнительная информация

В oтличие oт бoльшинства пoгoдных сайтoв мы публикуем пoдрoбную метеoинфoрмацию в детальнoм прoфессиoнальнoм фoрмате.

Характеристики температуры и влажнoсти вoздуха измеряются на высoте 2 м в тени вдали oт зданий и деревьев.
Скoрoсть ветра измеряется на высoте 10 м (на урoвне рoста челoвека скoрoсть ветра ниже в 1.5-2 раза). Если метеoстанция нахoдится в гoрoде или в лесу, тo скoрoсть ветра занижена на 2-4 м/с пo сравнению с oткрытым местoм. Скoрoсть ветра над акватoриями крупных рек и oзёр, а также на вершинах хoлмoв на 2-5 м/с выше, чем в oбычных услoвиях.
Атмoсфернoе давление в разных тoчках местнoсти мoжет значительнo oтличаться oт давления на метеoстанции, в зависимoсти oт услoвий рельефа (при пoдъёме на 10 м давление пoнижается примернo на 1 мм рт.ст.).